Tracking 19796 objects as of 19-Jul-2019
HD Live streaming from Space Station
objects crossing your sky now

COSMOS 1275 DEB

Track COSMOS 1275 DEB now!
10-day predictions


NORAD ID: 12648
Int'l Code: 1981-053C
Perigee: 958.2 km
Apogee: 981.9 km
Inclination: 83.0 °
Period: 104.3 minutes
Semi major axis: 7341 km
RCS: 0.408 m2 (medium)
Launch date: June 4, 1981
Source: Commonwealth of Independent States (former USSR) (CIS)
Launch site: PLESETSK MISSILE AND SPACE COMPLEX (PKMTR)

Note: This is SATELLITE DEBRIS
aabbcc
Your satellite tracking list
Your tracking list is empty




NASA's NSSDC Master Catalog

Two Line Element Set (TLE):
1 12648U 81053C   19199.82985714 +.00000080 +00000-0 +61525-4 0  9992
2 12648 082.9709 288.9472 0016140 092.0140 048.3088 13.80280636909158
Source of the keplerian elements: AFSPC